Rome, NY

6:57 AM EDT on July 21, 2017 (GMT -0400)
Griffiss

Weather History for KRME - February, 2014

Change the Weather History Date:

Saturday, February 15, 2014

  Actual Average Record
Temperature  
Mean Temperature 26 °F -  
Max Temperature 30 °F 36 °F 49 °F (1982)
Min Temperature 19 °F 17 °F -21 °F (1987)
Degree Days  
Heating Degree Days 40    
Moisture  
Dew Point 20 °F    
Average Humidity 82    
Maximum Humidity 93    
Minimum Humidity 61    
Precipitation  
Precipitation 0.01 in - - ()
Sea Level Pressure  
Sea Level Pressure 29.81 in    
Wind  
Wind Speed 5 mph (WNW)    
Max Wind Speed 18 mph    
Max Gust Speed -    
Visibility 4 miles    
Events Fog , Snow    
Averages and records for this station are not official NWS values.
T = Trace of Precipitation, MM = Missing Value Source: NWS Daily Summary

Daily Weather History Graph

Daily Weather History Graph

Search for Another Location

Airport or City:

Trip Planner

Search our weather history database for the weather conditions in past years. The results will help you decide how hot, cold, wet, or windy it might be!

Date:

Astronomy

Feb. 15, 2014 Rise Set
Actual Time 6:59 AM EST 5:32 PM EST
Civil Twilight 6:30 AM EST 6:01 PM EST
Nautical Twilight 5:56 AM EST 6:35 PM EST
Astronomical Twilight 5:23 AM EST 7:08 PM EST
Moon 6:33 PM EST (2/15) 6:54 AM EST (2/15)
Length of Visible Light 11h 31m
Length of Day
10h 33m
Full, 100% of the Moon is Illuminated
Feb 15
Full
Feb 22
Last Quarter
Mar 1
New
Mar 8
First Quarter
Mar 16
Full

Hourly Weather History & Observations

Time (EST) Temp. Windchill Dew Point Humidity Pressure Visibility Wind Dir Wind Speed Gust Speed Precip Events Conditions
12:53 AM 26.1 °F - 18.0 °F 71% 29.77 in 8.0 mi Calm Calm - N/A   Overcast
1:53 AM 25.0 °F - 18.0 °F 75% 29.78 in 7.0 mi Calm Calm - N/A   Overcast
2:53 AM 24.1 °F 18.2 °F 19.0 °F 81% 29.79 in 7.0 mi ESE 4.6 mph - N/A   Overcast
3:53 AM 24.1 °F 19.7 °F 19.0 °F 81% 29.78 in 7.0 mi ENE 3.5 mph - N/A   Overcast
4:53 AM 23.0 °F 18.4 °F 19.0 °F 85% 29.79 in 6.0 mi SE 3.5 mph - N/A   Overcast
5:38 AM 25.0 °F 20.7 °F 19.0 °F 78% 29.77 in 7.0 mi East 3.5 mph - N/A   Overcast
5:53 AM 24.1 °F 19.7 °F 19.0 °F 81% 29.78 in 6.0 mi SE 3.5 mph - N/A   Haze
6:23 AM 23.0 °F 18.4 °F 19.0 °F 85% 29.77 in 6.0 mi SSE 3.5 mph - N/A   Overcast
6:53 AM 24.1 °F - 19.0 °F 81% 29.78 in 7.0 mi Calm Calm - N/A   Overcast
7:19 AM 25.0 °F - 19.0 °F 78% 29.77 in 3.0 mi Calm Calm - 0.00 in Snow Light Snow
7:27 AM 24.1 °F - 19.9 °F 84% 29.77 in 2.0 mi Calm Calm - 0.00 in Snow Light Snow
7:36 AM 24.1 °F - 19.9 °F 84% 29.77 in 1.5 mi Calm Calm - 0.00 in Snow Light Snow
7:53 AM 24.1 °F 18.2 °F 19.9 °F 84% 29.79 in 1.2 mi SSE 4.6 mph - 0.00 in Snow Light Snow
8:19 AM 25.0 °F 20.7 °F 21.0 °F 85% 29.79 in 1.8 mi East 3.5 mph - 0.00 in Snow Light Snow
8:29 AM 25.0 °F - 21.0 °F 85% 29.79 in 2.0 mi Calm Calm - 0.00 in Snow Light Snow
8:38 AM 26.1 °F - 21.9 °F 84% 29.78 in 1.5 mi Calm Calm - 0.00 in Snow Light Snow
8:53 AM 25.0 °F - 21.9 °F 88% 29.81 in 1.2 mi Calm Calm - 0.00 in Snow Light Snow
9:53 AM 26.1 °F 21.9 °F 23.0 °F 88% 29.83 in 1.0 mi SSE 3.5 mph - 0.00 in Snow Light Snow
10:53 AM 28.0 °F - 25.0 °F 88% 29.83 in 2.0 mi Calm Calm - 0.01 in Snow Light Snow
11:39 AM 28.9 °F - 24.1 °F 82% 29.82 in 2.5 mi Calm Calm - 0.00 in Snow Light Snow
11:53 AM 30.0 °F - 24.1 °F 79% 29.83 in 2.5 mi Calm Calm - 0.00 in   Haze
12:02 PM 30.0 °F - 24.1 °F 79% 29.81 in 2.5 mi Calm Calm - 0.00 in Snow Light Snow
12:41 PM 28.0 °F - 25.0 °F 88% 29.81 in 2.5 mi Calm Calm - 0.00 in Snow Light Snow
12:53 PM 28.0 °F 21.7 °F 23.0 °F 81% 29.82 in 2.5 mi West 5.8 mph - 0.00 in Snow Light Snow
1:11 PM 28.9 °F 21.9 °F 24.1 °F 82% 29.80 in 3.0 mi Variable 6.9 mph - 0.00 in Snow Light Snow
1:18 PM 28.9 °F 21.9 °F 23.0 °F 78% 29.80 in 2.0 mi West 6.9 mph - 0.00 in Snow Light Snow
1:26 PM 28.0 °F 21.7 °F 24.1 °F 85% 29.80 in 1.2 mi West 5.8 mph - 0.00 in Snow Light Snow
1:53 PM 28.9 °F 22.8 °F 24.1 °F 82% 29.80 in 1.5 mi West 5.8 mph - 0.00 in Snow Light Snow
2:10 PM 28.0 °F 21.7 °F 25.0 °F 88% 29.78 in 0.8 mi West 5.8 mph - 0.00 in Snow Light Snow
2:18 PM 28.0 °F 20.0 °F 25.0 °F 88% 29.78 in 1.2 mi West 8.1 mph - 0.00 in Snow Light Snow
2:29 PM 27.0 °F 13.9 °F 23.0 °F 85% 29.79 in 0.5 mi NW 18.4 mph - 0.00 in Fog , Snow Snow
2:46 PM 26.1 °F 15.6 °F 21.9 °F 84% 29.79 in 1.5 mi NW 11.5 mph - 0.00 in Snow Light Snow
2:53 PM 27.0 °F 17.3 °F 21.9 °F 81% 29.81 in 3.0 mi NW 10.4 mph - 0.00 in Snow Light Snow
3:53 PM 28.0 °F 16.1 °F 17.1 °F 63% 29.80 in 10.0 mi NW 16.1 mph - 0.00 in   Overcast
4:53 PM 28.0 °F 17.5 °F 16.0 °F 61% 29.83 in 10.0 mi West 12.7 mph - N/A   Mostly Cloudy
5:53 PM 23.0 °F 11.1 °F 14.0 °F 68% 29.84 in 10.0 mi WNW 12.7 mph - N/A   Clear
6:53 PM 23.0 °F 11.7 °F 17.1 °F 78% 29.86 in 8.0 mi NW 11.5 mph - 0.00 in Snow Light Snow
7:02 PM 21.0 °F 13.4 °F 15.1 °F 78% 29.85 in 9.0 mi WNW 5.8 mph - 0.00 in   Mostly Cloudy
7:25 PM 21.0 °F 10.6 °F 16.0 °F 81% 29.85 in 10.0 mi WNW 9.2 mph - 0.00 in   Partly Cloudy
7:53 PM 21.9 °F 10.4 °F 17.1 °F 82% 29.86 in 9.0 mi West 11.5 mph - 0.00 in   Partly Cloudy
8:05 PM 21.9 °F 11.7 °F 18.0 °F 85% 29.84 in 4.0 mi WNW 9.2 mph - 0.00 in Snow Light Snow
8:53 PM 21.9 °F 9.8 °F 18.0 °F 85% 29.86 in 2.0 mi West 12.7 mph - 0.00 in Snow Light Snow
9:21 PM 21.9 °F 9.8 °F 19.0 °F 89% 29.84 in 3.0 mi WNW 12.7 mph - 0.00 in Snow Light Snow
9:37 PM 21.9 °F 11.0 °F 19.0 °F 89% 29.83 in 3.0 mi West 10.4 mph - 0.00 in Snow Light Snow
9:44 PM 21.9 °F 10.4 °F 19.0 °F 89% 29.83 in 2.0 mi West 11.5 mph - 0.00 in Snow Light Snow
9:51 PM 21.2 °F 10.1 °F 19.4 °F 93% 29.83 in 1.8 mi West 10.4 mph - 0.00 in Snow Light Snow
9:53 PM 21.9 °F 10.4 °F 19.0 °F 89% 29.85 in 2.0 mi West 11.5 mph - 0.00 in Snow Light Snow
10:10 PM 21.9 °F 8.2 °F 18.0 °F 85% 29.84 in 4.0 mi WNW 16.1 mph - 0.00 in Snow Light Snow
10:31 PM 21.9 °F 8.2 °F 17.1 °F 82% 29.84 in 8.0 mi WNW 16.1 mph - 0.00 in Snow Light Snow
10:53 PM 21.9 °F 9.2 °F 17.1 °F 82% 29.86 in 6.0 mi WNW 13.8 mph - 0.00 in Snow Light Snow
11:44 PM 21.0 °F 7.1 °F 15.1 °F 78% 29.85 in 3.0 mi WNW 16.1 mph - 0.00 in Snow Light Snow
11:53 PM 19.9 °F 6.7 °F 15.1 °F 81% 29.87 in 3.0 mi WNW 13.8 mph - 0.00 in Snow Light Snow